Weather observations for the past three days for
Grand Forks, Grand Forks International Airport
Imperial (Metric)
Date Time (cdt) Wind (mph) Vis. (mi.) Weather Sky Cond. Temperature (ºF) Relative Humidity Wind Chill (°F) Heat Index (°F) Pressure Precipitation (in)
Air Dwpt 6 hour altimeter (in) sea level (mb) 1 hr 3 hr 6 hr
Max. Min.
22 20:53 W 5 10.00 Mostly Cloudy BKN130 71.1 63 76% 29.8 1009.1
22 19:53 SW 3 10.00 Mostly Cloudy SCT050 BKN100 75 63 66% 77 29.8 1008.9
22 18:53 NW 3 10.00 Mostly Cloudy BKN050 BKN220 73.9 62.1 78.1 73.9 67% 29.81 1009.3
22 17:53 W 3 10.00 Mostly Cloudy BKN055 BKN130 77 61 58% 79 29.82 1009.6
22 16:53 Calm 10.00 Mostly Cloudy SCT036 BKN044 BKN055 77 60.1 56% 79 29.83 1009.9
22 15:53 Vrbl 5 10.00 Mostly Cloudy BKN034 BKN048 77 60.1 56% 79 29.84 1010.3
22 14:53 E 6 10.00 Mostly Cloudy BKN044 75 59 58% 77 29.84 1010.4
22 13:53 E 8 10.00 Mostly Cloudy SCT033 BKN180 75.9 59 56% 78 29.86 1011.0
22 12:53 E 9 10.00 Mostly Cloudy BKN030 BKN200 73.9 57.9 75.9 64.9 57% 29.87 1011.2
22 11:53 E 9 10.00 Mostly Cloudy SCT030 BKN049 BKN200 73 57.9 59% 29.88 1011.7
22 10:53 Vrbl 3 10.00 Overcast BKN046 OVC070 72 57.9 61% 29.89 1012.1
22 09:53 E 5 10.00 Mostly Cloudy BKN044 69.1 57 66% 29.9 1012.3
22 08:53 Calm 10.00 Overcast BKN042 OVC250 68 57 68% 29.91 1012.6
22 07:53 Vrbl 3 10.00 Overcast SCT020 OVC060 66 57.9 75% 29.92 1013.1
22 06:53 E 5 10.00 Overcast OVC060 64.9 57.9 66.9 64 78% 29.93 1013.3
22 05:53 E 7 10.00 Overcast OVC060 64 57.9 81% 29.93 1013.6
22 04:53 SE 13 10.00 Overcast OVC060 66 57.9 75% 29.94 1013.8
22 03:53 E 6 10.00 Overcast BKN033 OVC044 66 59 78% 29.95 1014.1
22 02:53 E 3 10.00 Overcast BKN045 OVC060 66 61 84% 29.97 1014.8
22 01:53 NE 5 10.00 Overcast OVC043 66.9 62.1 84% 29.98 1015.1
22 00:53 Calm 10.00 Overcast OVC041 66.9 62.1 73 64.9 84% 30 1015.7 0.01
21 23:53 NW 3 10.00 Overcast BKN070 OVC100 64.9 62.1 90% 30.01 1016.1
21 22:53 NW 5 10.00 Overcast FEW042 OVC110 64.9 61 87% 30.01 1016.2
21 21:53 S 5 10.00 Overcast BKN120 OVC170 66.9 61 81% 30.01 1016.1 0.01
21 20:53 E 8 10.00 Light Rain OVC110 69.1 59 70% 30 1016.0 0.01
21 19:53 NE 9 10.00 Light Rain FEW040 BKN110 BKN160 71.1 59 66% 30.03 1016.8
21 18:53 E 6 10.00 Mostly Cloudy FEW040 BKN140 BKN190 73 57.9 78.1 73 59% 30.05 1017.5
21 17:53 E 8 10.00 Mostly Cloudy FEW040 BKN150 BKN190 73.9 55.9 54% 30.06 1017.9
21 16:53 E 9 10.00 Mostly Cloudy FEW044 BKN140 BKN190 75.9 55.9 50% 78 30.08 1018.6
21 15:53 E 9 10.00 Overcast FEW050 BKN150 OVC190 77 55 47% 78 30.1 1019.2
21 14:53 E 12 10.00 Mostly Cloudy FEW060 BKN200 77 52 42% 78 30.12 1019.9
21 13:53 SE 8 10.00 Mostly Cloudy FEW045 BKN220 77 53.1 43% 78 30.13 1020.4
21 12:53 E 9 10.00 Mostly Cloudy FEW044 BKN250 75 55 77 60.1 50% 78 30.14 1020.7
21 11:53 E 10 10.00 Mostly Cloudy FEW042 SCT160 BKN250 75 54 48% 78 30.16 1021.3
21 10:53 E 8 10.00 Mostly Cloudy FEW037 SCT160 BKN250 73.9 55.9 54% 30.17 1021.7
21 09:53 Calm 10.00 Mostly Cloudy SCT170 BKN250 70 55.9 61% 30.19 1022.3
21 08:53 Calm 10.00 Mostly Cloudy FEW160 BKN250 64.9 55.9 73% 30.2 1022.7
21 07:53 Calm 10.00 Mostly Cloudy SCT140 BKN250 62.1 55 78% 30.21 1023.0
21 06:53 Calm 10.00 Mostly Cloudy SCT160 BKN250 60.1 55 60.1 51.1 84% 30.21 1023.1
21 05:53 NE 5 10.00 Mostly Cloudy SCT150 BKN300 55.9 52 87% 30.22 1023.3
21 04:53 Calm 10.00 Fair CLR 52 48 86% 30.22 1023.4
21 03:53 Calm 10.00 Fair CLR 55 52 90% 30.22 1023.3
21 02:53 S 3 10.00 Fair CLR 55 52 90% 30.22 1023.6
21 01:53 Calm 10.00 Fair CLR 55 51.1 87% 30.23 1023.9
21 00:53 SE 6 10.00 Fair CLR 59 53.1 73.9 59 81% 30.24 1024.2
20 23:53 S 7 10.00 Fair CLR 61 53.1 75% 30.23 1023.9
20 22:53 S 8 10.00 Partly Cloudy SCT180 63 54 73% 30.23 1023.7
20 21:53 SE 6 10.00 A Few Clouds FEW180 66.9 54 63% 30.22 1023.4
20 20:53 S 5 10.00 Partly Cloudy SCT180 69.1 55.9 63% 30.23 1023.8
20 19:53 S 8 10.00 Partly Cloudy SCT050 SCT180 72 54 53% 30.24 1024.1
20 18:53 S 13 10.00 Mostly Cloudy SCT050 BKN190 73.9 54 77 73 50% 30.24 1024.2
20 17:53 S 14 10.00 Mostly Cloudy BKN050 BKN190 75 55 50% 78 30.25 1024.4
20 16:53 S 12 10.00 Mostly Cloudy SCT045 BKN060 73 55 53% 30.26 1024.9
20 15:53 S 10 10.00 Mostly Cloudy SCT045 BKN080 BKN210 75 53.1 46% 78 30.26 1024.7
20 14:53 S 10 10.00 Mostly Cloudy SCT040 BKN090 BKN200 75 55 50% 78 30.28 1025.6
20 13:53 S 14 G 18 10.00 Mostly Cloudy FEW036 BKN100 BKN200 73.9 55 52% 30.3 1026.3
20 12:53 S 9 10.00 Mostly Cloudy BKN100 73 57.9 73 55.9 59% 30.31 1026.3
20 11:53 SW 10 10.00 Mostly Cloudy BKN100 71.1 55.9 59% 30.32 1026.7
20 10:53 S 9 10.00 Mostly Cloudy BKN100 71.1 53.1 53% 30.32 1026.6
20 09:53 S 10 10.00 Mostly Cloudy BKN095 69.1 52 55% 30.31 1026.5
20 08:53 S 7 10.00 Fair CLR 64.9 52 63% 30.32 1026.9
20 07:53 SE 7 10.00 Fair CLR 61 50 67% 30.32 1026.8
20 06:53 SE 5 10.00 Mostly Cloudy BKN110 55.9 48.9 57.9 54 77% 30.32 1026.9
20 05:53 SE 3 10.00 Mostly Cloudy BKN110 54 48 80% 30.32 1026.9
20 04:53 SE 6 10.00 Fair CLR 54 46.9 77% 30.31 1026.7
20 03:53 SE 7 10.00 Fair CLR 55 46.9 74% 30.31 1026.7
20 02:53 SE 7 10.00 Fair CLR 55.9 48 75% 30.31 1026.7
20 01:53 SE 6 10.00 Fair CLR 57 48.9 74% 30.32 1026.9
20 00:53 SE 5 10.00 Fair CLR 57.9 48.9 69.1 55.9 72% 30.32 1027.1
19 23:53 S 5 10.00 Fair CLR 59 48.9 69% 30.32 1026.9
19 22:53 SE 5 10.00 Mostly Cloudy BKN150 62.1 48.9 62% 30.31 1026.6
19 21:53 S 5 10.00 Mostly Cloudy BKN180 62.1 51.1 67% 30.3 1026.1
Date Time (cdt) Wind (mph) Vis. (mi.) Weather Sky Cond. Air Dwpt Max. Min. Relative Humidity Wind Chill (°F) Heat Index (°F) altimeter (in) sea level (mb) 1 hr 3 hr 6 hr
6 hour
Temperature (ºF) Pressure Precipitation (in)